www.pogodaiklimat.ru

Погода и климат >> Архив погоды >> Россия >> Якутия >> Джарджан


ПОГОДА в Джарджане

  • Прогноз погоды в Джарджане
  • Монитор погоды в Джарджане
  • Климат города

АРХИВ ПОГОДЫ в Джарджане

Время (UTC), дата Ветер
(напр.,м/с)
 
Видим.   Явления Облачность Т
(С)
Тd
(С)
f
(%)
Тe
(С)
Тes
(С)
Комфортность P
(гПа)
Po
(гПа)
Тmin
(С)
Tmax
(С)
R
(мм)
R24
(мм)
S
(см)
15 11.12 ЮЗ 3 50 км 10/10 600 м
[Cb cap]
-29.3 -33.1 70 -39 -39 опасность
обморожения
1020.3 1014.8
18 11.12 Ю 4 50 км 10/10 600 м
[Cb cap]
-29.0 -32.7 70 -40 -40 опасность
обморожения
1020.2 1014.7
21 11.12 Ю 5 50 км 10/10 600 м
[Cb cap]
-29.1 -32.9 70 -41 -41 опасность
обморожения
1019.5 1014.0
00 12.12 Ю 5 50 км 10/10 600 м
[Cb cap]
-30.0 -33.7 70 -43 -43 опасность
обморожения
1019.4 1013.9 -30.0 18
03 12.12 Ю 5 50 км 6/6 600 м
[Cb cap]
-29.8 -33.5 70 -42 -42 опасность
обморожения
1019.1 1013.6
06 12.12 Ю 5 50 км 10/10 600 м
[Cb cap]
-29.0 -32.7 70 -41 -41 опасность
обморожения
1018.0 1012.5
09 12.12 Ю 7
{14}
1000 м метель 10/10 600 м
[Cb cap]
-28.4 -32.2 70 -43 -43 опасность
обморожения
1018.3 1012.8
12 12.12 Ю 6
{12}
1000 м метель 10/10 600 м
[Cb cap]
-28.3 -32.0 70 -41 -41 опасность
обморожения
1019.1 1013.6 -28.3
15 12.12 Ю 5
{10}
1000 м метель 10/10 600 м
[Cb cap]
-28.4 -32.2 70 -41 -41 опасность
обморожения
1019.7 1020.0
18 12.12 ЮЗ 5
{11}
1000 м метель 10/10 600 м
[Cb cap]
-29.8 -33.5 70 -42 -42 опасность
обморожения
1020.9 1015.4
21 12.12 Ю 4 50 км {метель} 10/10 600 м
[Cb cap]
-30.8 -34.5 70 -42 -42 опасность
обморожения
1021.3 1015.8
00 13.12 Ю 3 50 км 8/8 1000 м
[Sc]
-31.1 -34.7 70 -41 -41 опасность
обморожения
1021.0 1015.5 -31.1 18
03 13.12 Ю 3 50 км 8/4 1000 м
[Sc Ci fib]
-31.6 -35.2 70 -42 -42 опасность
обморожения
1020.0 1014.5
06 13.12 Ю 3 50 км ясно -31.4 -35.0 70 -41 -41 опасность
обморожения
1018.2 1012.7
09 13.12 Ю 4 50 км ясно -30.3 -34.1 69 -42 -42 опасность
обморожения
1015.9 1010.4
12 13.12 Ю 5 50 км ясно -28.3 -32.0 70 -40 -40 опасность
обморожения
1009.7 1007.2 -28.3
15 13.12 Ю 6
{12}
50 км ясно -25.4 -29.2 70 -38 -38 опасность
обморожения
1008.9 1003.6
18 13.12 Ю 7
{14}
50 км ясно -23.2 -26.4 75 -36 -36 опасность
обморожения
1006.3 1001.0
21 13.12 Ю 7
{14}
50 км метель ясно -22.6 -25.8 75 -35 -35 опасность
обморожения
1004.3 999.0
00 14.12 Ю 6
{10}
1000 м метель ясно -23.0 -25.5 80 -35 -35 опасность
обморожения
1003.5 998.2 -28.3 18
03 14.12 Ю 6
{12}
1000 м метель ясно -23.1 -26.3 75 -35 -35 опасность
обморожения
1002.9 997.6
06 14.12 Ю 6
{12}
1000 м метель ясно -23.5 -26.7 75 -35 -35 опасность
обморожения
1002.9 997.6
09 14.12 ЮЗ 5
{11}
1000 м метель ясно -23.1 -26.3 75 -34 -34 опасность
обморожения
1002.9 997.6
12 14.12 ЮЗ 5
{10}
1000 м метель ясно -23.0 -26.3 74 -34 -34 опасность
обморожения
1003.0 997.7 -23.0
15 14.12 штиль 0
{10}
50 км метель ?/? -22.7 -25.9 75 -23 -23 1002.4 997.1
18 14.12 ЮЗ 5
{11}
50 км {метель} ясно -23.0 -26.3 74 -34 -34 опасность
обморожения
1002.2 996.9
21 14.12 Ю 5
{10}
50 км ясно -23.5 -26.7 75 -34 -34 опасность
обморожения
1002.5 997.2
00 15.12 Ю 5
{10}
50 км ясно -23.9 -27.8 70 -35 -35 опасность
обморожения
1002.9 997.6 -23.9 18
03 15.12 Ю 4
{10}
50 км 4/0
[Ac trans]
-24.8 -28.0 75 -35 -35 опасность
обморожения
1002.7 997.4
06 15.12 Ю 5
{10}
50 км 8/0
[Ac As]
-25.9 -29.1 74 -37 -37 опасность
обморожения
1002.9 997.6
09 15.12 Ю 5
{11}
50 км 3/0
[Ac As]
-26.3 -29.4 75 -38 -38 опасность
обморожения
1002.8 997.5
12 15.12 ЮВ 2 50 км 8/0
[Ac As]
-26.5 -29.7 74 -33 -33 опасность
обморожения
1002.1 996.8 -24.8
15 15.12 В 1 50 км 8/0
[Ac As]
-26.6 -29.0 80 -30 -30 1000.8 995.5
18 15.12 В 1 50 км 10/0
[Ac As]
-26.0 -28.4 80 -30 -30 999.8 994.5
21 15.12 штиль 0 50 км 6/0
[Ac As]
-26.4 -28.8 80 -26 -26 999.3 994.0
00 16.12 ЮВ 1 50 км 6/0
[Ac As]
-26.4 -28.8 80 -30 -30 999.3 994.0 -26.9 18
03 16.12 ЮВ 1 20 км слабый снег 10/0
[Ac As]
-26.6 -29.0 80 -30 -30 999.5 994.2
06 16.12 В 1 20 км слабый снег 10/0
[Ac As]
-26.8 -29.3 79 -31 -31 опасность
обморожения
999.5 994.2
09 16.12 штиль 0 50 км {снег} 3/0
[Ac As]
-28.2 -31.3 75 -28 -28 1000.4 995.0
12 16.12 штиль 0 50 км ясно -29.3 -32.4 74 -29 -29 1000.6 995.2 -26.6 0.8
15 16.12 штиль 0 50 км ясно -30.4 -33.4 75 -30 -30 1000.4 995.0
18 16.12 штиль 0 50 км ясно -30.8 -33.8 75 -31 -31 опасность
обморожения
1000.6 995.2
21 16.12 штиль 0 50 км ясно -34.6 -38.1 70 -35 -35 опасность
обморожения
1001.5 996.0
00 17.12 штиль 0 50 км ясно -34.2 -37.8 70 -34 -34 опасность
обморожения
1002.1 996.6 -35.4 20
03 17.12 штиль 0 50 км 6/0
[Ac As]
-34.5 -38.1 70 -35 -35 опасность
обморожения
1002.7 997.2
06 17.12 штиль 0 20 км слабый снег 10/0
[Ac As]
-35.0 -38.7 69 -35 -35 опасность
обморожения
1003.7 998.2
09 17.12 штиль 0 20 км слабый снег 10/0
[Ac As]
-32.0 -35.7 70 -32 -32 опасность
обморожения
1005.3 999.9
12 17.12 штиль 0 50 км {снег} 6/0
[Ac As]
-35.2 -38.7 70 -35 -35 опасность
обморожения
1006.2 1000.7 -32.0 0.6
15 17.12 штиль 0 50 км 3/0
[Ac As]
-35.6 -39.0 71 -36 -36 опасность
обморожения
1006.5 1001.0
18 17.12 штиль 0 50 км ясно -37.3 -41.5 65 -37 -37 опасность
обморожения
1006.9 1001.4
21 17.12 СВ 2 50 км ясно -39.6 -43.5 66 -49 -49 опасность
обморожения
1007.4 1001.7
00 18.12 штиль 0 50 км ясно -41.0 -45.8 60 -41 -41 опасность
обморожения
1008.1 1002.4 -41.0 20
03 18.12 штиль 0 50 км ясно -42.5 -46.9 62 -43 -43 опасность
обморожения
1008.3 1002.5
06 18.12 штиль 0 50 км ясно -44.4 -48.9 61 -44 -44 опасность
обморожения
1009.0 1003.2
09 18.12 штиль 0 50 км ясно -44.3 -48.9 60 -44 -44 опасность
обморожения
1009.3 1003.5
12 18.12 штиль 0 50 км ясно -45.0 -49.7 59 -45 -45 опасность
обморожения
1009.2 1003.4 -42.5

 

Местоположение метеостанции Джарджан (Якутия, Россия): широта 68.73 долгота 124.00 высота над уровнем моря 39 м.

В архиве по умолчанию представлена погода в Джарджане за последнюю неделю. Архивные данные за месяц целиком и за предыдущие месяцы, начиная с января 2011 года, Вы можете получить, выбрав интересующий диапазон дат из раскрывающегося списка и нажав кнопку "Ввод!".


*Определитесь, кто Вы:
робот инопланетянин человек

Внимание! Время в таблицах - всемирное. Для получения местного времени необходимо прибавить поправку, которая в Джарджане равна 9 ч.

Смотрите также архив погоды в соседних городах и на ближайших метеорологических станциях:

Погода в Жиганске (Якутия, Россия) (219 км)
Погода в Сухане (Якутия, Россия) (231 км)
Погода в Кюсюре (Якутия, Россия) (253 км)
Погода в Батагай-Алыте (Якутия, Россия) (284 км)
Погода в Тюмяти (Якутия, Россия) (355 км)
Погода в Тикси (Якутия, Россия) (367 км)
Погода в Бестяхской Звероферме (Якутия, Россия) (382 км)
Погода в Екюччю (Якутия, Россия) (387 км)
Погода в Верхоянске (Якутия, Россия) (409 км)
Погода на Мысе Быков (Якутия, Россия) (410 км)

Пояснения к столбцам:

Ветер - указаны скорость ветра в м/с - средняя за 10 мин, порывы в срок и между сроками (в фигурных скобках) и направление, откуда дует ветер: С - северный, СВ - северо-восточный, В - восточный, ЮВ - юго-восточный, Ю - южный, ЮЗ - юго-западный, З - западный, СЗ - северо-западный.
Видимость - горизонтальная дальность видимости в метрах или километрах. При видимости от 1 до 10 км при отсутствии осадков обычно наблюдается дымка, при ухудшении видимости до 1 км и менее - туман. В сухую погоду видимость может ухудшаться дымом, пылью или мглою.
Явления - указаны атмосферные явления, наблюдавшиеся в срок или в последний час перед сроком; фигурными скобками обозначены явления, наблюдавшиеся между сроками (за 1-3 часа до срока); квадратными скобками обозначены град или гололедные отложения с указанием их диаметра в мм.
Облачность - указаны через наклонную черту общая и нижняя облачность в баллах и высота нижней границы облаков в метрах; квадратными скобками обозначены формы облаков: Ci - перистые, Cs - перисто-слоистые, Cc - перисто-кучевые, Ac - высококучевые, As - высокослоистые, Sc - слоисто-кучевые, Ns - слоисто-дождевые, Cu - кучевые, Cb - кучево-дождевые. Подробнее классификацию облаков см. в Атласе облаков (PDF).
T - Температура воздуха - температура, измеренная на высоте 2 м над землей.
Td - Температура точки росы - температура, при понижении до которой содержащийся в воздухе водяной пар достигнет насыщения.
f - Относительная влажность воздуха - влажноcть воздуха, измеренная на высоте 2 м над землей.
Te - Эффективная температура - температура, которую ощущает одетый по сезону человек в тени. Характеристика душности погоды. При расчете учитывается влияние влажности воздуха и скорости ветра на теплоощущения человека.
Tes - Эффективная температура на солнце - температура, которую ощущает человек, с поправкой на солнечный нагрев. Характеристика знойности погоды. Зависит от высоты солнца над горизонтом, облачности и скорости ветра. Ночью, в пасмурную погоду, а также при ветре 12 м/с и более поправка равна нулю.
P - Атмосферное давление - приведенное к уровню моря атмосферное давление.
Po - Атмосферное давление - измеренное на уровне метеостанции атмосферное давление.
Tmin - Минимальная температура - минимум температуры воздуха на высоте 2 м над землей.
Tmax - Максимальная температура - максимум температуры воздуха на высоте 2 м над землей.
R - Количество осадков - Количество выпавших осадков за период времени, мм. При наведении курсора мыши на число - период времени, за который выпало указанное количество осадков.
R24 - Количество осадков - Количество выпавших осадков за 24 часа, мм.
S - Снежный покров - Высота снежного покрова, см. При наведении курсора мыши на число - состояние снежного покрова и степень покрытия местности в баллах.